Location: Dehesa de la Cepeda
(40.6574°N, 4.3013°W)
Time: 04:12:23
(UTC+00:00)

Meteor 1-27 - Pass Details

Date: 05 July 2020
Orbit: 838 x 892 km, 81.3° (Epoch: 11 August)

Event Time Altitude Azimuth Distance (km) Brightness Sun altitude
Rises 22:07:28 0° 350° (N) 3,454 8.6 -19.4°
Reaches altitude 10° 22:09:53 10° 350° (N) 2,521 7.7 -19.6°
Maximum altitude 22:15:38 90° 246° (WSW) 883 4.2 -20.2°
Enters shadow 22:18:07 36° 172° (S) 1,350 4.8 -20.4°
